�N����,����,�~����,�C��,���x,�C��,����,���ϕ���,�ő�u�ԕ���,�ő厞����,���˗�,�I�_���x,�n�����x,�ő啗���N��,DTYPE
"20/11/17","00:10",0.0,11.1,93.4,1021.5,296.5,1.6,3.2,322.5,0.00,10.1,13.3,"00:07:32",1
"20/11/17","00:20",0.0,11.5,93.5,1021.5,311.3,2.1,3.7,323.6,0.00,10.5,13.4,"00:15:12",1
"20/11/17","00:30",0.0,11.5,93.6,1021.3,326.2,2.1,3.1,335.9,0.00,10.5,13.5,"00:24:02",1
"20/11/17","00:40",0.0,11.3,93.8,1021.5,331.6,1.2,2.7,343.1,0.00,10.4,13.3,"00:39:22",1
"20/11/17","00:50",0.0,11.3,93.9,1021.5,328.4,1.5,2.2,331.7,0.00,10.4,13.4,"00:48:52",1
"20/11/17","01:00",0.0,11.5,94.0,1021.5,341.5,1.5,2.0,352.4,0.00,10.6,13.3,"00:53:06",1
"20/11/17","01:10",0.0,10.9,93.9,1021.5,286.1,1.0,1.3,307.4,0.00,10.0,13.4,"01:02:24",1
"20/11/17","01:20",0.0,11.0,94.4,1022.0,327.7,1.3,2.4,326.3,0.00,10.2,13.3,"01:18:38",1
"20/11/17","01:30",0.0,10.8,94.3,1021.8,307.5,1.2,2.0,319.8,0.00,10.0,13.4,"01:27:16",1
"20/11/17","01:40",0.0,11.1,94.6,1021.5,333.1,2.0,3.5,334.9,0.00,10.3,13.3,"01:38:46",1
"20/11/17","01:50",0.0,11.2,94.5,1022.0,330.1,2.1,3.1,336.6,0.00,10.4,13.4,"01:40:24",1
"20/11/17","02:00",0.0,11.2,94.5,1022.3,335.4,1.7,3.1,329.3,0.00,10.4,13.4,"01:51:46",1
"20/11/17","02:10",0.0,11.3,94.5,1022.0,352.0,1.5,2.7,335.1,0.00,10.5,13.2,"02:07:24",1
"20/11/17","02:20",0.0,11.1,94.4,1021.8,316.6,1.8,3.1,328.0,0.00,10.3,13.1,"02:14:00",1
"20/11/17","02:30",0.0,11.1,94.4,1022.0,332.0,2.2,3.4,324.8,0.00,10.3,13.2,"02:22:32",1
"20/11/17","02:40",0.0,11.3,94.4,1022.0,332.7,2.2,3.5,333.6,0.00,10.5,13.2,"02:32:56",1
"20/11/17","02:50",0.0,11.4,94.2,1021.8,340.8,1.8,3.6,352.2,0.00,10.5,13.3,"02:42:16",1
"20/11/17","03:00",0.0,11.3,94.0,1021.8,336.4,2.2,4.3,334.2,0.00,10.4,13.0,"02:59:28",1
"20/11/17","03:10",0.0,11.3,93.9,1022.0,334.3,2.5,4.2,336.9,0.00,10.4,13.3,"03:01:20",1
"20/11/17","03:20",0.0,11.2,93.8,1022.0,331.7,2.3,4.4,332.5,0.00,10.3,13.2,"03:16:26",1
"20/11/17","03:30",0.0,11.2,93.6,1021.8,308.4,2.0,3.9,332.8,0.00,10.2,13.2,"03:29:44",1
"20/11/17","03:40",0.0,11.2,93.4,1021.8,291.3,1.8,3.6,329.8,0.00,10.2,13.1,"03:33:28",1
"20/11/17","03:50",0.0,10.9,93.3,1021.8,311.4,1.0,2.7,300.2,0.00,9.9,13.2,"03:44:08",1
"20/11/17","04:00",0.0,10.7,93.2,1022.0,335.8,0.7,2.0,319.3,0.00,9.7,13.2,"03:51:36",1
"20/11/17","04:10",0.0,10.2,93.2,1022.0,308.8,1.3,2.1,326.8,0.00,9.2,12.9,"04:07:12",1
"20/11/17","04:20",0.0,9.6,93.3,1022.0,314.9,1.7,2.2,330.9,0.00,8.6,13.1,"04:18:16",1
"20/11/17","04:30",0.0,9.3,93.4,1022.0,301.6,1.0,2.4,308.8,0.00,8.3,12.8,"04:24:32",1
"20/11/17","04:40",0.0,9.3,93.6,1021.8,292.6,1.3,2.1,332.5,0.00,8.4,12.7,"04:39:20",1
"20/11/17","04:50",0.0,9.9,93.7,1021.8,328.9,1.8,4.0,342.9,0.00,9.0,12.8,"04:47:04",1
"20/11/17","05:00",0.0,10.5,93.5,1021.5,335.5,2.2,3.4,352.8,0.00,9.5,12.7,"04:52:16",1
"20/11/17","05:10",0.0,10.5,93.6,1022.0,331.0,2.0,3.4,331.0,0.00,9.6,12.6,"05:01:20",1
"20/11/17","05:20",0.0,10.7,93.6,1022.3,325.8,2.5,4.4,314.4,0.00,9.8,12.7,"05:19:28",1
"20/11/17","05:30",0.0,11.1,93.6,1022.3,329.2,2.7,4.3,336.1,0.00,10.1,12.9,"05:24:24",1
"20/11/17","05:40",0.0,11.3,93.5,1022.0,323.5,2.5,4.5,316.5,0.00,10.3,12.8,"05:35:52",1
"20/11/17","05:50",0.0,11.3,93.3,1022.5,307.8,1.8,4.0,336.8,0.00,10.3,12.8,"05:44:24",1
"20/11/17","06:00",0.0,10.9,93.3,1022.5,270.7,1.2,2.4,264.3,0.00,9.9,12.8,"05:55:36",1
"20/11/17","06:10",0.0,10.5,93.4,1022.5,214.0,0.3,1.3,231.0,0.00,9.5,12.7,"06:09:54",1
"20/11/17","06:20",0.0,10.4,93.8,1022.3,252.0,1.7,2.9,241.1,0.00,9.5,12.8,"06:17:12",1
"20/11/17","06:30",0.0,10.4,93.6,1022.5,267.8,1.6,3.1,242.5,0.00,9.5,12.4,"06:23:36",1
"20/11/17","06:40",0.0,10.2,93.7,1022.7,284.5,1.7,3.4,273.5,0.00,9.3,12.6,"06:31:12",1
"20/11/17","06:50",0.0,10.1,93.8,1022.5,336.8,0.6,1.3,280.4,0.00,9.2,12.7,"06:40:08",1
"20/11/17","07:00",0.0,9.8,93.8,1022.7,314.3,1.0,1.6,294.4,0.00,8.9,12.3,"06:53:28",1
"20/11/17","07:10",0.0,9.3,93.9,1023.2,291.4,1.1,1.7,321.6,0.00,8.4,12.5,"07:00:02",1
"20/11/17","07:20",0.0,9.3,94.2,1022.5,310.1,1.7,2.7,322.5,0.00,8.5,12.4,"07:17:20",1
"20/11/17","07:30",0.0,9.8,94.2,1023.0,302.6,1.2,2.4,323.2,0.01,9.0,12.3,"07:29:28",1
"20/11/17","07:40",0.0,10.3,94.3,1023.2,322.9,1.2,2.7,330.9,0.02,9.5,12.5,"07:30:08",1
"20/11/17","07:50",0.0,10.8,94.2,1023.2,298.0,1.5,4.2,331.4,0.03,9.9,12.5,"07:49:36",1
"20/11/17","08:00",0.0,11.5,93.7,1023.2,325.9,3.0,5.4,334.5,0.04,10.6,12.5,"07:54:56",1
"20/11/17","08:10",0.0,12.0,93.0,1023.0,329.0,3.0,4.5,339.8,0.06,10.9,12.7,"08:01:20",1
"20/11/17","08:20",0.0,12.6,92.2,1023.9,297.5,2.1,3.7,349.0,0.09,11.4,12.8,"08:11:52",1
"20/11/17","08:30",0.0,12.9,91.6,1023.9,265.7,1.2,2.5,231.5,0.11,11.6,12.8,"08:20:24",1
"20/11/17","08:40",0.0,13.2,90.7,1024.1,290.0,0.7,1.7,357.2,0.13,11.8,12.9,"08:38:48",1
"20/11/17","08:50",0.0,13.6,90.0,1024.6,322.5,0.7,1.6,337.3,0.16,12.0,13.0,"08:41:52",1
"20/11/17","09:00",0.0,13.8,88.8,1024.6,318.0,1.3,2.9,328.3,0.18,12.0,13.3,"08:51:44",1
"20/11/17","09:10",0.0,14.4,87.3,1024.1,299.7,0.6,1.6,356.3,0.20,12.4,13.5,"09:01:44",1
"20/11/17","09:20",0.0,14.7,85.4,1024.4,237.2,0.3,1.0,251.1,0.23,12.3,13.7,"09:10:24",1
"20/11/17","09:30",0.0,15.1,84.1,1024.4,330.0,0.8,1.7,315.1,0.25,12.5,13.5,"09:21:44",1
"20/11/17","09:40",0.0,15.6,81.9,1023.9,313.5,1.3,3.1,335.7,0.27,12.6,14.1,"09:32:32",1
"20/11/17","09:50",0.0,15.9,80.2,1023.7,259.7,1.2,2.5,226.3,0.29,12.5,13.9,"09:49:04",1
"20/11/17","10:00",0.0,16.5,78.1,1023.4,273.2,1.0,1.8,332.9,0.31,12.7,14.2,"09:55:44",1
"20/11/17","10:10",0.0,17.4,75.3,1023.2,216.1,0.5,2.1,224.9,0.32,13.0,14.5,"10:00:32",1
"20/11/17","10:20",0.0,17.8,72.2,1023.2,109.1,0.5,1.3,137.6,0.34,12.8,14.7,"10:12:24",1
"20/11/17","10:30",0.0,18.1,67.6,1023.0,181.0,0.5,1.9,219.6,0.35,12.1,15.1,"10:29:44",1
"20/11/17","10:40",0.0,18.8,65.7,1022.5,159.1,0.6,1.6,112.4,0.37,12.3,14.9,"10:31:28",1
"20/11/17","10:50",0.0,18.9,63.5,1022.5,220.0,0.5,1.9,215.6,0.38,11.9,15.2,"10:47:36",1
"20/11/17","11:00",0.0,18.9,60.0,1022.5,215.8,0.8,2.0,213.1,0.39,11.0,15.6,"10:59:20",1
"20/11/17","11:10",0.0,19.5,57.6,1022.0,291.9,0.7,1.3,315.9,0.40,11.0,15.9,"11:05:44",1
"20/11/17","11:20",0.0,20.0,55.8,1021.5,310.5,0.8,2.5,338.6,0.40,11.0,15.9,"11:16:32",1
"20/11/17","11:30",0.0,20.0,54.4,1021.5,182.4,0.6,1.7,210.7,0.41,10.6,16.2,"11:26:40",1
"20/11/17","11:40",0.0,20.4,53.5,1021.3,230.9,1.0,2.4,200.8,0.41,10.7,16.2,"11:33:12",1
"20/11/17","11:50",0.0,20.6,52.7,1020.8,152.6,0.8,2.0,126.4,0.41,10.6,16.5,"11:41:44",1
"20/11/17","12:00",0.0,21.0,52.9,1020.8,211.2,0.6,1.8,202.0,0.41,11.1,16.6,"11:58:48",1
"20/11/17","12:10",0.0,21.4,51.9,1020.6,182.6,0.7,2.1,217.2,0.41,11.2,16.8,"12:00:48",1
"20/11/17","12:20",0.0,21.4,50.9,1020.4,187.4,0.7,2.2,119.2,0.41,10.9,17.0,"12:11:44",1
"20/11/17","12:30",0.0,21.7,49.6,1020.4,166.9,1.0,2.7,174.7,0.41,10.8,17.2,"12:22:32",1
"20/11/17","12:40",0.0,21.7,47.7,1019.9,146.1,1.0,2.5,115.5,0.40,10.2,17.2,"12:34:24",1
"20/11/17","12:50",0.0,21.6,48.5,1019.7,113.1,1.2,2.9,113.2,0.39,10.3,17.2,"12:49:44",1
"20/11/17","13:00",0.0,21.5,49.2,1020.1,137.3,1.1,2.5,163.4,0.38,10.4,17.4,"12:58:48",1
"20/11/17","13:10",0.0,21.8,47.9,1019.7,186.2,0.7,1.9,126.7,0.37,10.3,17.6,"13:01:12",1
"20/11/17","13:20",0.0,22.0,46.9,1019.7,163.0,1.1,2.7,122.8,0.36,10.2,17.7,"13:16:16",1
"20/11/17","13:30",0.0,22.5,46.9,1019.7,182.6,0.8,1.9,205.2,0.34,10.6,17.7,"13:20:48",1
"20/11/17","13:40",0.0,22.4,44.5,1019.4,127.4,1.1,2.7,118.7,0.33,9.8,17.9,"13:39:20",1
"20/11/17","13:50",0.0,22.4,43.1,1019.4,161.6,0.7,1.8,104.1,0.31,9.3,18.1,"13:40:08",1
"20/11/17","14:00",0.0,22.7,43.1,1019.4,49.8,0.7,2.1,128.8,0.30,9.6,18.1,"13:52:40",1
"20/11/17","14:10",0.0,22.4,43.6,1019.2,51.4,1.3,2.6,109.1,0.28,9.5,18.1,"14:09:12",1
"20/11/17","14:20",0.0,22.6,45.2,1019.4,132.7,0.8,2.2,109.0,0.26,10.2,18.0,"14:11:28",1
"20/11/17","14:30",0.0,22.8,44.5,1019.0,158.5,0.8,2.2,106.5,0.24,10.1,18.0,"14:28:16",1
"20/11/17","14:40",0.0,22.6,43.0,1019.4,91.8,1.0,2.1,19.6,0.21,9.4,18.1,"14:30:56",1
"20/11/17","14:50",0.0,22.5,43.3,1019.4,127.0,1.0,2.4,110.5,0.19,9.5,18.0,"14:48:40",1
"20/11/17","15:00",0.0,22.3,44.8,1019.2,154.6,0.7,2.4,108.2,0.17,9.8,18.1,"14:53:04",1
"20/11/17","15:10",0.0,22.0,45.5,1019.2,117.7,1.0,2.4,127.3,0.14,9.7,17.9,"15:08:08",1
"20/11/17","15:20",0.0,21.7,46.6,1019.2,151.2,0.8,3.1,116.7,0.12,9.8,17.7,"15:17:04",1
"20/11/17","15:30",0.0,21.6,47.6,1019.2,152.9,0.6,1.4,173.4,0.10,10.0,17.7,"15:22:32",1
"20/11/17","15:40",0.0,21.4,48.1,1019.7,145.4,0.6,1.6,115.3,0.08,10.0,17.7,"15:33:12",1
"20/11/17","15:50",0.0,21.1,49.6,1019.4,230.0,0.6,2.2,230.7,0.05,10.2,17.7,"15:45:52",1
"20/11/17","16:00",0.0,20.2,52.5,1019.7,256.2,0.7,1.4,221.9,0.01,10.2,17.7,"15:55:12",1
"20/11/17","16:10",0.0,19.4,54.8,1019.9,275.1,0.7,1.2,236.6,0.00,10.1,17.4,"16:07:20",1
"20/11/17","16:20",0.0,18.3,59.1,1019.9,303.8,0.3,0.9,42.3,0.00,10.2,17.2,"16:14:40",1
"20/11/17","16:30",0.0,17.4,62.4,1019.9,293.5,0.8,1.6,334.1,0.00,10.2,17.1,"16:27:04",1
"20/11/17","16:40",0.0,16.9,64.7,1020.4,304.4,0.7,1.7,311.9,0.00,10.3,17.0,"16:37:20",1
"20/11/17","16:50",0.0,16.6,66.5,1020.4,300.4,0.8,1.4,317.9,0.00,10.4,16.8,"16:40:02",1
"20/11/17","17:00",0.0,16.2,67.7,1020.4,305.7,1.0,1.3,315.0,0.00,10.3,16.5,"16:50:08",1
"20/11/17","17:10",0.0,16.1,68.9,1020.6,319.5,1.1,1.8,327.8,0.00,10.4,16.5,"17:01:44",1
"20/11/17","17:20",0.0,15.7,69.6,1020.4,294.9,0.8,1.3,264.6,0.00,10.2,16.3,"17:15:28",1
"20/11/17","17:30",0.0,15.5,70.6,1020.8,315.9,1.1,1.8,327.5,0.00,10.2,16.2,"17:24:08",1
"20/11/17","17:40",0.0,15.0,71.4,1020.6,290.2,1.0,1.3,286.4,0.00,9.9,16.2,"17:39:04",1
"20/11/17","17:50",0.0,14.6,72.5,1020.8,299.4,0.8,2.2,334.8,0.00,9.8,16.2,"17:44:48",1
"20/11/17","18:00",0.0,14.3,73.4,1020.8,291.7,0.8,1.2,309.5,0.00,9.7,15.9,"17:54:48",1
"20/11/17","18:10",0.0,14.2,74.8,1021.1,299.5,1.0,1.9,315.5,0.00,9.8,15.6,"18:03:28",1
"20/11/17","18:20",0.0,14.1,76.3,1021.3,288.9,1.1,1.8,307.6,0.00,10.0,15.6,"18:10:40",1
"20/11/17","18:30",0.0,14.0,77.7,1021.3,280.7,1.0,1.7,322.2,0.00,10.2,15.3,"18:26:56",1
"20/11/17","18:40",0.0,13.7,78.6,1021.3,285.3,1.0,1.4,309.1,0.00,10.1,15.4,"18:35:48",1
"20/11/17","18:50",0.0,13.4,79.2,1021.3,287.9,0.8,1.1,307.3,0.00,9.9,15.4,"18:47:46",1
"20/11/17","19:00",0.0,13.2,80.1,1021.5,291.0,1.1,1.7,315.1,0.00,9.9,15.1,"18:51:30",1
"20/11/17","19:10",0.0,12.9,80.7,1021.3,306.7,1.0,1.3,321.3,0.00,9.7,15.1,"19:08:56",1
"20/11/17","19:20",0.0,12.3,81.3,1021.1,311.8,1.1,1.4,311.1,0.00,9.2,15.2,"19:11:48",1
"20/11/17","19:30",0.0,12.0,82.1,1021.1,315.7,1.2,1.6,323.2,0.00,9.1,14.8,"19:23:10",1
"20/11/17","19:40",0.0,11.8,83.1,1021.5,320.4,1.1,1.9,308.8,0.00,9.1,14.9,"19:35:48",1
"20/11/17","19:50",0.0,11.5,83.7,1021.8,314.0,1.0,1.6,319.4,0.00,8.9,14.7,"19:49:48",1
"20/11/17","20:00",0.0,11.4,84.5,1021.5,315.1,1.5,1.7,325.0,0.00,8.9,14.5,"19:51:30",1
"20/11/17","20:10",0.0,11.3,85.5,1021.5,303.3,1.2,1.7,319.9,0.00,9.0,14.6,"20:04:50",1
"20/11/17","20:20",0.0,11.5,86.1,1021.5,317.0,1.3,1.9,321.3,0.00,9.3,14.5,"20:17:20",1
"20/11/17","20:30",0.0,11.3,86.7,1021.5,313.1,1.3,1.8,321.9,0.00,9.2,14.5,"20:20:24",1
"20/11/17","20:40",0.0,11.2,87.4,1022.0,306.3,1.2,1.7,324.3,0.00,9.2,14.6,"20:33:46",1
"20/11/17","20:50",0.0,11.2,87.8,1021.5,313.7,1.3,1.8,322.6,0.00,9.3,14.2,"20:45:46",1
"20/11/17","21:00",0.0,11.1,88.4,1021.8,311.2,1.3,1.8,321.3,0.00,9.3,14.2,"20:57:04",1
"20/11/17","21:10",0.0,11.1,88.7,1022.3,314.6,1.1,1.9,319.4,0.00,9.3,14.3,"21:01:36",1
"20/11/17","21:20",0.0,10.9,89.1,1022.0,307.9,1.3,1.9,325.0,0.00,9.2,14.1,"21:10:32",1
"20/11/17","21:30",0.0,10.9,89.6,1022.3,297.5,1.0,1.7,310.7,0.00,9.3,14.1,"21:21:04",1
"20/11/17","21:40",0.0,11.1,89.9,1022.3,313.6,1.0,1.7,323.0,0.00,9.5,14.0,"21:38:52",1
"20/11/17","21:50",0.0,10.9,90.2,1021.5,319.4,1.7,2.2,324.2,0.00,9.4,14.0,"21:44:32",1
"20/11/17","22:00",0.0,10.7,90.4,1022.0,304.0,0.8,1.3,326.9,0.00,9.2,13.7,"21:50:08",1
"20/11/17","22:10",0.0,10.5,90.8,1022.0,312.3,1.2,1.7,318.7,0.00,9.1,13.7,"22:07:54",1
"20/11/17","22:20",0.0,10.5,91.2,1022.0,314.8,1.2,1.8,313.5,0.00,9.2,13.7,"22:17:28",1
"20/11/17","22:30",0.0,10.4,91.4,1021.8,316.5,1.6,1.9,321.1,0.00,9.1,13.6,"22:21:12",1
"20/11/17","22:40",0.0,10.4,91.7,1022.3,313.5,1.3,1.7,311.4,0.00,9.1,13.7,"22:30:24",1
"20/11/17","22:50",0.0,10.4,91.9,1022.3,304.1,1.1,1.6,323.0,0.00,9.2,13.6,"22:42:40",1
"20/11/17","23:00",0.0,10.8,92.1,1022.5,303.3,1.3,1.7,324.5,0.00,9.6,13.6,"22:59:54",1
"20/11/17","23:10",0.0,11.0,92.2,1022.0,317.3,1.5,2.2,326.9,0.00,9.8,13.5,"23:00:48",1
"20/11/17","23:20",0.0,10.9,92.4,1022.3,310.1,1.3,1.8,316.1,0.00,9.8,13.4,"23:13:04",1
"20/11/17","23:30",0.0,10.8,92.6,1021.8,321.2,0.8,1.8,319.4,0.00,9.7,13.4,"23:27:20",1
"20/11/17","23:40",0.0,10.5,92.8,1022.0,310.7,1.3,2.1,314.6,0.00,9.4,13.7,"23:31:44",1
"20/11/17","23:50",0.0,10.5,93.2,1022.0,309.9,1.2,1.9,332.2,0.00,9.5,13.4,"23:48:08",1
"20/11/17","24:00",0.0,10.8,93.3,1022.0,316.1,1.3,1.9,307.9,0.00,9.8,13.4,"23:54:10",1
